(152438) = 2005 UO442

Discovered at Palomar on 2005-10-29 by NEAT.

Orbit

Orbit type: Main Belt

Note: WebGL enabled browser required.

epoch2024-03-31.0
epoch JD2460400.5
perihelion date2023-08-23.17752
perihelion JD2460179.67753
argument of perihelion (°)159.78203
ascending node (°)352.12392
inclination (°)13.00406
eccentricity0.1678939
perihelion distance (AU)2.1638035
Tisserand w.r.t. Jupiter3.4
ΔV w.r.t. Earth (km/sec)10.0
semimajor axis (AU)2.6003937
mean anomaly (°)51.90255
mean daily motion (°/day)0.23504200
aphelion distance (AU)3.037
period (years)4.19
P-vector [x]-0.88339032
P-vector [y]0.39307264
P-vector [z]0.25517729
Q-vector [x]-0.46762246
Q-vector [y]-0.70351609
Q-vector [z]-0.53515824
absolute magnitude15.21
phase slope0.15
uncertainty0
referenceE2024-GJ9
observations used914
oppositions18
arc length (days)8602
first opposition used2000
last opposition used2024
residual rms (arc-secs)0.69
perturbers coarse indicatorM-v
perturbers precise indicator003Ek
first observation date used2000-09-24.0
last observation date used2024-04-12.0
computer nameMPCLINUX
JD of orbit computation2456966.856311
perihelion JD uncertainty (days)1.0162E-04
argument of perihelion uncertainty (°)3.3353E-05
ascending node uncertainty (°)2.0253E-05
inclination uncertainty (°)9.0948E-06
eccentricity uncertainty 8.7504E-08
perihelion distance uncertainty (AU)2.2531E-07
Minimum Orbit Intersection Distances (in AU)
for orbit epoch: 2460400.5, reference: E2024-GJ9
Mercury1.79909
Venus1.44522
Earth1.17818
Mars0.50207
Jupiter1.95751
Saturn6.53239
Uranus16.2604
Neptune26.9148

Observations

891 total observations over interval: 2000 09 24.18458 – 2024 03 16.305762
These data are available for download (format description).

Date (UT) J2000 RA J2000 Dec Magn Location Ref
2000 09 24.18458 22 29 47.86 -12 47 24.1 19.5 R 699 – Lowell Observatory-LONEOS MPS 162840
2000 09 24.20769 22 29 46.75 -12 47 26.2   699 – Lowell Observatory-LONEOS MPS 162840
2000 09 24.23098 22 29 45.63 -12 47 25.4   699 – Lowell Observatory-LONEOS MPS 162840
2000 09 24.25414 22 29 44.59 -12 47 26.6   699 – Lowell Observatory-LONEOS MPS 162840
2001 10 25.36438 04 59 43.66 +40 22 00.2 19.3   704 – Lincoln Laboratory ETS, New Mexico MPS 162840
2001 10 25.38134 04 59 43.31 +40 22 07.8 19.6   704 – Lincoln Laboratory ETS, New Mexico MPS 162840
2001 10 25.39893 04 59 42.94 +40 22 15.4 19.6   704 – Lincoln Laboratory ETS, New Mexico MPS 162840
2001 10 25.41529 04 59 42.60 +40 22 22.1 19.8   704 – Lincoln Laboratory ETS, New Mexico MPS 162840
2001 12 08.22453 04 17 03.10 +42 43 22.8 18.8   704 – Lincoln Laboratory ETS, New Mexico MPS 162840
2001 12 08.23968 04 17 01.89 +42 43 20.0 19.3   704 – Lincoln Laboratory ETS, New Mexico MPS 162840
2001 12 08.25514 04 17 00.63 +42 43 19.0 19.2   704 – Lincoln Laboratory ETS, New Mexico MPS 162840
2001 12 08.27068 04 16 59.39 +42 43 16.6 19.0   704 – Lincoln Laboratory ETS, New Mexico MPS 162840
2001 12 08.28586 04 16 58.12 +42 43 14.4 18.9   704 – Lincoln Laboratory ETS, New Mexico MPS 162840
2001 12 23.22402 04 00 06.09 +41 41 48.8 19.2   704 – Lincoln Laboratory ETS, New Mexico MPS 162840
2001 12 23.23958 04 00 05.18 +41 41 43.8 19.5   704 – Lincoln Laboratory ETS, New Mexico MPS 162840
2001 12 23.27022 04 00 03.41 +41 41 34.5 19.5   704 – Lincoln Laboratory ETS, New Mexico MPS 162840
2002 01 06.15236 03 50 57.70 +40 14 59.3 19.6   704 – Lincoln Laboratory ETS, New Mexico MPS 162840
2002 01 06.16743 03 50 57.23 +40 14 53.3 19.6   704 – Lincoln Laboratory ETS, New Mexico MPS 162840
2002 01 06.19751 03 50 56.48 +40 14 40.3 19.9   704 – Lincoln Laboratory ETS, New Mexico MPS 162840
2002 01 06.21255 03 50 56.26 +40 14 34.9 20.0   704 – Lincoln Laboratory ETS, New Mexico MPS 162840
2002 01 23.09362 03 50 28.54 +38 26 30.2 18.7   704 – Lincoln Laboratory ETS, New Mexico MPS 162840
2002 01 23.10826 03 50 28.80 +38 26 25.9 19.2   704 – Lincoln Laboratory ETS, New Mexico MPS 162840
2002 01 23.12288 03 50 29.07 +38 26 20.1 19.2   704 – Lincoln Laboratory ETS, New Mexico MPS 162840
2002 01 23.13753 03 50 29.31 +38 26 14.9 19.3   704 – Lincoln Laboratory ETS, New Mexico MPS 162840
2002 01 23.15219 03 50 29.51 +38 26 09.6 19.6   704 – Lincoln Laboratory ETS, New Mexico MPS 162840
2004 08 08.29621 22 08 46.43 -21 45 38.3 19.8   704 – Lincoln Laboratory ETS, New Mexico MPS 162840
2004 08 08.30566 22 08 45.85 -21 45 40.0 20.1   704 – Lincoln Laboratory ETS, New Mexico MPS 162840
2004 08 08.31506 22 08 45.20 -21 45 41.6 20.2   704 – Lincoln Laboratory ETS, New Mexico MPS 162840
2004 08 08.32464 22 08 44.76 -21 45 42.1 20.2   704 – Lincoln Laboratory ETS, New Mexico MPS 162840
2004 08 22.61203 21 54 30.54 -22 14 29.8 18.3 R E12 – Siding Spring Survey MPS 162840
2004 08 22.62345 21 54 29.86 -22 14 30.9 19.1 R E12 – Siding Spring Survey MPS 162840
2004 08 22.63488 21 54 29.14 -22 14 31.5 18.8 R E12 – Siding Spring Survey MPS 162840
2004 08 22.64630 21 54 28.41 -22 14 32.6 19.6 R E12 – Siding Spring Survey MPS 162840
2005 10 03.40486 03 11 40.46 +31 53 24.4 19.6 R 644 – Palomar Mountain/NEAT MPS 155395
2005 10 03.42200 03 11 39.93 +31 53 29.8 19.5 R 644 – Palomar Mountain/NEAT MPS 155395
2005 10 03.43511 03 11 39.54 +31 53 34.4 19.6 R 644 – Palomar Mountain/NEAT MPS 155395
2005 10 10.35767 03 07 38.20 +32 27 56.8 19.4 V 703 – Catalina Sky Survey MPS 155395
2005 10 10.36477 03 07 37.92 +32 27 57.6 19.3 V 703 – Catalina Sky Survey MPS 155395
2005 10 10.37187 03 07 37.70 +32 27 58.9 19.4 V 703 – Catalina Sky Survey MPS 155395
2005 10 10.37900 03 07 37.23 +32 28 02.4 19.4 V 703 – Catalina Sky Survey MPS 155395
2005 10 29.45916 02 49 55.69 +33 18 52.6 18.8 R 644 – Palomar Mountain/NEAT MPS 151121
2005 10 29.48290 02 49 54.06 +33 18 53.9 18.9 R 644 – Palomar Mountain/NEAT MPS 151121
2005 10 29.50413 02 49 52.62 +33 18 54.4 18.8 R 644 – Palomar Mountain/NEAT MPS 151121
2005 11 01.30049 02 46 42.47 +33 19 50.6 18.7 R 699 – Lowell Observatory-LONEOS MPS 151121
2005 11 01.32614 02 46 40.59 +33 19 51.0   699 – Lowell Observatory-LONEOS MPS 151121
2005 11 01.35180 02 46 38.84 +33 19 49.7   699 – Lowell Observatory-LONEOS MPS 151121
2005 11 01.37746 02 46 36.92 +33 19 50.3   699 – Lowell Observatory-LONEOS MPS 151121
2005 11 02.30661 02 45 32.90 +33 19 45.5 18.7 V 703 – Catalina Sky Survey MPS 155395
2005 11 02.31199 02 45 32.43 +33 19 45.4 18.8 V 703 – Catalina Sky Survey MPS 155395
2005 11 02.31735 02 45 31.93 +33 19 44.4 18.4 V 703 – Catalina Sky Survey MPS 155395
2005 11 02.32263 02 45 31.71 +33 19 44.0 18.6 V 703 – Catalina Sky Survey MPS 155395
2005 11 10.23488 02 36 15.26 +33 11 05.3 18.7 V 703 – Catalina Sky Survey MPS 155395
2005 11 10.24140 02 36 14.76 +33 11 04.8 18.8 V 703 – Catalina Sky Survey MPS 155395
2005 11 10.24793 02 36 14.25 +33 11 03.9 18.7 V 703 – Catalina Sky Survey MPS 155395
2005 11 10.25446 02 36 13.68 +33 11 02.7 18.3 V 703 – Catalina Sky Survey MPS 155395
2005 11 21.19332 02 23 59.56 +32 38 48.6 18.9 V 703 – Catalina Sky Survey MPS 155395
2005 11 21.19387 02 23 59.60 +32 38 48.1 19.5 V 703 – Catalina Sky Survey MPS 155395
2005 11 21.20316 02 23 58.92 +32 38 46.2 18.4 V 703 – Catalina Sky Survey MPS 155395
2005 11 21.20370 02 23 58.88 +32 38 46.4 18.9 V 703 – Catalina Sky Survey MPS 155395
2005 11 21.21292 02 23 58.45 +32 38 44.2 18.9 V 703 – Catalina Sky Survey MPS 155395
2005 11 21.21346 02 23 58.38 +32 38 44.1 18.8 V 703 – Catalina Sky Survey MPS 155395
2005 11 21.22254 02 23 57.80 +32 38 42.0 18.6 V 703 – Catalina Sky Survey MPS 155395
2005 11 21.22308 02 23 57.73 +32 38 41.2 18.7 V 703 – Catalina Sky Survey MPS 155395
2005 12 01.20248 02 14 43.18 +31 55 00.7 18.5 R 699 – Lowell Observatory-LONEOS MPS 153831
2005 12 01.22446 02 14 42.10 +31 54 54.6   699 – Lowell Observatory-LONEOS MPS 153831
2005 12 01.26842 02 14 39.93 +31 54 41.7   699 – Lowell Observatory-LONEOS MPS 153831
2005 12 03.19483 02 13 11.53 +31 45 25.4 18.9 V 703 – Catalina Sky Survey MPS 153831
2005 12 03.19974 02 13 11.35 +31 45 24.1 19.2 V 703 – Catalina Sky Survey MPS 153831
2005 12 03.20464 02 13 11.13 +31 45 22.6 19.0 V 703 – Catalina Sky Survey MPS 153831
2005 12 03.20959 02 13 10.92 +31 45 21.4 18.9 V 703 – Catalina Sky Survey MPS 153831
2005 12 17.22823 02 06 02.81 +30 38 00.9 18.9 R 699 – Lowell Observatory-LONEOS MPS 156101
2005 12 17.25377 02 06 02.41 +30 37 54.8   699 – Lowell Observatory-LONEOS MPS 156101
2005 12 17.27937 02 06 01.92 +30 37 48.3   699 – Lowell Observatory-LONEOS MPS 156101
2005 12 17.30497 02 06 01.54 +30 37 39.2   699 – Lowell Observatory-LONEOS MPS 156101
2006 12 26.49922 12 56 10.88 -05 02 44.0 20.1 V 691 – Steward Observatory, Kitt Peak-Spacewatch MPS 192264
2006 12 26.51163 12 56 11.79 -05 02 53.6 20.2 V 691 – Steward Observatory, Kitt Peak-Spacewatch MPS 192264
2006 12 26.52431 12 56 12.74 -05 03 02.8 20.1 V 691 – Steward Observatory, Kitt Peak-Spacewatch MPS 192264
2007 02 18.39694 13 36 42.44 -14 40 41.4 19.0   704 – Lincoln Laboratory ETS, New Mexico MPS 200411
2007 02 18.40901 13 36 42.51 -14 40 48.0 18.8   704 – Lincoln Laboratory ETS, New Mexico MPS 200411
2007 02 18.42100 13 36 42.50 -14 40 54.3 19.2   704 – Lincoln Laboratory ETS, New Mexico MPS 200411
2007 02 18.43325 13 36 42.47 -14 41 00.6 19.3   704 – Lincoln Laboratory ETS, New Mexico MPS 200411
2007 02 18.44537 13 36 42.55 -14 41 06.6 19.1   704 – Lincoln Laboratory ETS, New Mexico MPS 200411
2007 02 22.38967 13 36 43.14 -15 13 56.5 18.6   704 – Lincoln Laboratory ETS, New Mexico MPS 200411
2007 02 22.40142 13 36 43.07 -15 14 01.0 19.0   704 – Lincoln Laboratory ETS, New Mexico MPS 200411
2007 02 22.41316 13 36 42.95 -15 14 06.5 18.6   704 – Lincoln Laboratory ETS, New Mexico MPS 200411
2007 02 22.42490 13 36 42.84 -15 14 12.8 18.7   704 – Lincoln Laboratory ETS, New Mexico MPS 200411
2007 02 22.43670 13 36 42.81 -15 14 18.8 18.9   704 – Lincoln Laboratory ETS, New Mexico MPS 200411
2007 03 11.72603 13 30 40.03 -17 13 44.5 18.6 V E12 – Siding Spring Survey MPS 204446
2007 03 11.73668 13 30 39.60 -17 13 47.8 18.4 V E12 – Siding Spring Survey MPS 204446
